DW1973 Weather Reports


Display with metric or nautical units.
time (UTC)temp
F
wind
direction
speed
MPH
gust
MPH
rain 1hr
in
rain 24hr
in
rain mn
in
humidity
%
barometer
mb
20260904000936 89 205 0.0 0.0 0.00 0.00 0.00 68 1012.2
20260904000422 89 205 0.0 0.0 0.00 0.00 0.00 67 1012.2
20260903235933 90 205 0.0 2.0 0.00 0.00 0.00 67 1012.2
20260903235441 90 205 0.0 2.0 0.00 0.00 0.00 66 1012.3
20260903234948 90 205 2.0 2.0 0.00 0.00 0.00 66 1012.3
20260903234441 90 205 0.0 0.0 0.00 0.00 0.00 65 1012.3
20260903233949 90 205 0.0 0.0 0.00 0.00 0.00 65 1012.2
20260903233417 90 205 0.0 0.0 0.00 0.00 0.00 65 1012.2
20260903232927 90 205 0.0 0.0 0.00 0.00 0.00 64 1012.3
20260903232417 91 205 0.0 0.0 0.00 0.00 0.00 63 1012.3
20260903231955 91 205 0.0 2.0 0.00 0.00 0.00 63 1012.3
20260903231421 91 205 0.0 4.0 0.00 0.00 0.00 63 1012.4
20260903230928 91 205 2.0 4.0 0.00 0.00 0.00 62 1012.5
20260903230437 91 205 1.0 3.0 0.00 0.00 0.00 63 1012.5
20260903225928 91 205 1.0 5.0 0.00 0.00 0.00 63 1012.6
20260903225435 91 203 2.0 6.0 0.00 0.00 0.00 63 1012.6
20260903224920 91 199 3.0 6.0 0.00 0.00 0.00 63 1012.6
20260903224431 91 214 3.0 5.0 0.00 0.00 0.00 64 1012.5
20260903223920 91 206 1.0 3.0 0.00 0.00 0.00 64 1012.6
20260903223430 91 206 1.0 3.0 0.00 0.00 0.00 64 1012.6
20260903222922 91 206 1.0 3.0 0.00 0.00 0.00 63 1012.7
20260903222453 91 206 1.0 4.0 0.00 0.00 0.00 63 1012.8
20260903221922 91 207 1.0 5.0 0.00 0.00 0.00 62 1012.9
20260903221415 92 205 1.0 3.0 0.00 0.00 0.00 62 1012.9
20260903220947 92 196 0.0 2.0 0.00 0.00 0.00 62 1012.8
20260903220431 92 196 0.0 3.0 0.00 0.00 0.00 62 1012.8
20260903215944 92 197 2.0 6.0 0.00 0.00 0.00 61 1012.8
20260903215431 92 205 3.0 6.0 0.00 0.00 0.00 60 1012.9
20260903214918 92 185 2.0 6.0 0.00 0.00 0.00 62 1012.9
20260903214428 92 161 1.0 5.0 0.00 0.00 0.00 62 1012.9
20260903213937 92 200 2.0 5.0 0.00 0.00 0.00 61 1013.0
20260903213445 92 231 3.0 6.0 0.00 0.00 0.00 61 1012.9
20260903212934 92 209 3.0 5.0 0.00 0.00 0.00 61 1012.9
20260903212435 92 211 3.0 5.0 0.00 0.00 0.00 63 1012.9
20260903211944 92 221 3.0 5.0 0.00 0.00 0.00 63 1012.9
20260903211425 92 210 2.0 5.0 0.00 0.00 0.00 62 1012.9
20260903210935 92 211 3.0 5.0 0.00 0.00 0.00 63 1012.9
20260903210422 91 187 3.0 7.0 0.00 0.00 0.00 64 1012.8
20260903205916 91 189 3.0 7.0 0.00 0.00 0.00 62 1012.8
20260903205425 91 186 3.0 5.0 0.00 0.00 0.00 65 1012.9
20260903204933 91 192 2.0 5.0 0.00 0.00 0.00 63 1012.9
20260903204419 90 202 3.0 5.0 0.00 0.00 0.00 66 1012.9
20260903203926 90 188 2.0 6.0 0.00 0.00 0.00 67 1013.0
20260903203434 90 202 4.0 6.0 0.00 0.00 0.00 66 1013.1
20260903202926 90 142 3.0 5.0 0.00 0.00 0.00 66 1013.1
20260903202417 89 201 3.0 7.0 0.00 0.00 0.00 67 1013.2
20260903201923 90 198 4.0 7.0 0.00 0.00 0.00 66 1013.2
20260903201430 90 139 3.0 5.0 0.00 0.00 0.00 68 1013.3
20260903200920 89 215 3.0 7.0 0.00 0.00 0.00 68 1013.4
20260903200430 89 130 4.0 8.0 0.00 0.00 0.00 66 1013.5
20260903195948 89 140 2.0 8.0 0.00 0.00 0.00 68 1013.6
20260903195416 89 120 4.0 7.0 0.00 0.00 0.00 69 1013.7
20260903194926 89 130 4.0 7.0 0.00 0.00 0.00 68 1013.8
20260903194416 88 139 2.0 6.0 0.00 0.00 0.00 69 1013.8
20260903193953 88 126 4.0 8.0 0.00 0.00 0.00 69 1013.9
20260903193420 88 141 3.0 8.0 0.00 0.00 0.00 68 1014.0
20260903192933 88 153 2.0 6.0 0.00 0.00 0.00 69 1014.0
20260903192420 88 101 1.0 6.0 0.00 0.00 0.00 68 1014.1
20260903191930 88 112 2.0 6.0 0.00 0.00 0.00 68 1014.2
20260903191423 88 104 2.0 6.0 0.00 0.00 0.00 68 1014.2
20260903190913 88 29 1.0 3.0 0.00 0.00 0.00 69 1014.2
20260903190422 87 109 0.0 4.0 0.00 0.00 0.00 68 1014.3
20260903185926 87 11 2.0 6.0 0.00 0.00 0.00 69 1014.4
20260903185413 87 102 1.0 8.0 0.00 0.00 0.00 69 1014.3
20260903184921 87 88 3.0 8.0 0.00 0.00 0.00 68 1014.4
20260903184413 87 15 1.0 9.0 0.00 0.00 0.00 69 1014.5
20260903183949 87 61 2.0 9.0 0.00 0.00 0.00 69 1014.6
20260903183416 87 20 2.0 8.0 0.00 0.00 0.00 69 1014.5
20260903182928 87 341 3.0 8.0 0.00 0.00 0.00 68 1014.6
20260903182417 87 323 1.0 6.0 0.00 0.00 0.00 70 1014.7
20260903181926 87 30 2.0 8.0 0.00 0.00 0.00 70 1014.7
20260903181418 87 98 1.0 8.0 0.00 0.00 0.00 70 1014.8
20260903180931 87 30 1.0 9.0 0.00 0.00 0.00 70 1014.9
20260903180436 87 52 1.0 9.0 0.00 0.00 0.00 70 1014.8
20260903175942 87 338 2.0 5.0 0.00 0.00 0.00 70 1014.8
20260903175428 87 40 2.0 5.0 0.00 0.00 0.00 70 1014.9
20260903174917 87 30 2.0 3.0 0.00 0.00 0.00 70 1014.8
20260903174427 87 10 1.0 6.0 0.00 0.00 0.00 70 1015.1
20260903173913 87 315 3.0 8.0 0.00 0.00 0.00 69 1015.1
20260903173422 87 30 3.0 9.0 0.00 0.00 0.00 69 1015.1
20260903172935 87 29 3.0 9.0 0.00 0.00 0.00 68 1015.2
20260903172434 87 109 2.0 8.0 0.00 0.00 0.00 69 1015.2
20260903171943 87 46 3.0 9.0 0.00 0.00 0.00 68 1015.3
20260903171447 87 37 3.0 9.0 0.00 0.00 0.00 69 1015.2
20260903170932 87 136 2.0 6.0 0.00 0.00 0.00 70 1015.0
20260903170420 87 330 3.0 10.0 0.00 0.00 0.00 68 1015.1
20260903165959 87 345 2.0 10.0 0.00 0.00 0.00 69 1015.1
20260903165446 86 14 3.0 6.0 0.00 0.00 0.00 69 1015.0
20260903164934 86 306 2.0 6.0 0.00 0.00 0.00 69 1015.2
20260903164422 85 34 2.0 10.0 0.00 0.00 0.00 69 1015.2
20260903163930 85 298 3.0 10.0 0.00 0.00 0.00 69 1015.3
20260903163417 85 5 4.0 10.0 0.00 0.00 0.00 70 1015.3
20260903162931 85 340 4.0 8.0 0.00 0.00 0.00 72 1015.1
20260903162420 86 294 4.0 9.0 0.00 0.00 0.00 72 1015.1
20260903161929 87 332 4.0 9.0 0.00 0.00 0.00 72 1014.9
20260903161436 87 340 2.0 4.0 0.00 0.00 0.00 72 1014.9
20260903160949 87 305 1.0 3.0 0.00 0.00 0.00 72 1014.9
20260903160416 87 260 1.0 3.0 0.00 0.00 0.00 71 1014.6
20260903155929 87 219 1.0 3.0 0.00 0.00 0.00 71 1014.2
20260903155418 87 219 1.0 6.0 0.00 0.00 0.00 71 1014.2
20260903154929 87 223 2.0 6.0 0.00 0.00 0.00 71 1014.2
20260903154439 87 199 2.0 5.0 0.00 0.00 0.00 71 1014.2
20260903153928 86 237 2.0 5.0 0.00 0.00 0.00 72 1014.2
20260903153434 86 271 1.0 6.0 0.00 0.00 0.00 72 1014.2
20260903152952 86 202 1.0 3.0 0.00 0.00 0.00 72 1014.2
20260903152420 86 207 1.0 4.0 0.00 0.00 0.00 73 1014.1
20260903151924 85 211 2.0 5.0 0.00 0.00 0.00 73 1014.1
20260903151416 85 186 3.0 6.0 0.00 0.00 0.00 73 1014.1
20260903150925 85 213 2.0 7.0 0.00 0.00 0.00 74 1014.1
20260903150413 85 207 4.0 7.0 0.00 0.00 0.00 74 1014.2
20260903145924 85 234 4.0 7.0 0.00 0.00 0.00 74 1014.2
20260903145432 85 188 3.0 6.0 0.00 0.00 0.00 74 1014.1
20260903144942 84 360 2.0 6.0 0.00 0.00 0.00 75 1014.1
20260903144441 84 194 2.0 5.0 0.00 0.00 0.00 75 1014.2
20260903143928 84 360 3.0 8.0 0.00 0.00 0.00 75 1014.3
20260903143416 84 201 2.0 8.0 0.00 0.00 0.00 75 1014.3
20260903142927 84 178 3.0 6.0 0.00 0.00 0.00 75 1014.2
20260903142414 83 173 2.0 6.0 0.00 0.00 0.00 76 1014.2
20260903141922 83 190 2.0 8.0 0.00 0.00 0.00 77 1014.2
20260903141428 83 161 4.0 8.0 0.00 0.00 0.00 76 1014.2
20260903140916 83 194 3.0 8.0 0.00 0.00 0.00 76 1014.1
20260903140423 83 177 4.0 8.0 0.00 0.00 0.00 77 1014.1
20260903135916 82 200 3.0 6.0 0.00 0.00 0.00 77 1014.0
20260903135426 82 209 2.0 6.0 0.00 0.00 0.00 77 1014.1
20260903134915 82 187 2.0 6.0 0.00 0.00 0.00 78 1014.0
20260903134425 82 220 2.0 4.0 0.00 0.00 0.00 78 1014.2
20260903133932 82 167 2.0 4.0 0.00 0.00 0.00 79 1014.2
20260903133419 81 230 2.0 4.0 0.00 0.00 0.00 79 1014.2
20260903133000 81 198 1.0 6.0 0.00 0.00 0.00 80 1014.1
20260903132447 81 200 1.0 6.0 0.00 0.00 0.00 80 1014.2
20260903131928 80 166 2.0 5.0 0.00 0.00 0.00 81 1014.2
20260903131440 80 181 2.0 3.0 0.00 0.00 0.00 81 1014.2
20260903130929 80 176 2.0 4.0 0.00 0.00 0.00 82 1014.3
20260903130419 79 173 2.0 4.0 0.00 0.00 0.00 82 1014.2
20260903125929 79 186 1.0 3.0 0.00 0.00 0.00 83 1014.3
20260903125415 79 186 1.0 3.0 0.00 0.00 0.00 83 1014.2
20260903124922 79 188 2.0 3.0 0.00 0.00 0.00 84 1014.2
20260903124416 78 188 1.0 3.0 0.00 0.00 0.00 84 1014.2
20260903123931 78 184 1.0 3.0 0.00 0.00 0.00 84 1014.3
20260903123417 78 181 1.0 3.0 0.00 0.00 0.00 84 1014.3
20260903122927 78 182 0.0 4.0 0.00 0.00 0.00 84 1014.4
20260903122415 78 175 2.0 5.0 0.00 0.00 0.00 84 1014.3
20260903121925 77 182 1.0 2.0 0.00 0.00 0.00 85 1014.3
20260903121446 77 186 0.0 0.0 0.00 0.00 0.00 85 1014.4
20260903120932 77 175 0.0 0.0 0.00 0.00 0.00 85 1014.4
20260903120423 77 182 0.0 0.0 0.00 0.00 0.00 85 1014.4
20260903115915 77 360 0.0 0.0 0.00 0.00 0.00 85 1014.3
20260903115449 77 186 0.0 0.0 0.00 0.00 0.00 85 1014.3
20260903114917 77 183 0.0 0.0 0.00 0.00 0.00 85 1014.2
20260903114429 77 180 0.0 0.0 0.00 0.00 0.00 85 1014.2
20260903113940 77 182 0.0 0.0 0.00 0.00 0.00 84 1014.2
20260903113427 78 175 0.0 0.0 0.00 0.00 0.00 84 1014.3
20260903112918 78 179 0.0 0.0 0.00 0.00 0.00 84 1014.2
20260903112424 78 130 0.0 0.0 0.00 0.00 0.00 84 1014.2
20260903111927 78 184 0.0 2.0 0.00 0.00 0.00 84 1014.2
20260903111416 78 130 0.0 2.0 0.00 0.00 0.00 84 1014.2
20260903110923 78 126 0.0 2.0 0.00 0.00 0.00 84 1014.2
20260903110502 78 130 0.0 2.0 0.00 0.00 0.00 84 1014.1
20260903105925 78 133 0.0 1.0 0.00 0.00 0.00 85 1014.1
20260903105431 78 138 0.0 0.0 0.00 0.00 0.00 85 1014.1
20260903104918 78 138 0.0 0.0 0.00 0.00 0.00 85 1014.1
20260903104429 78 138 0.0 0.0 0.00 0.00 0.00 85 1014.1
20260903103938 78 135 0.0 3.0 0.00 0.00 0.00 85 1014.2
20260903102930 78 138 1.0 4.0 0.00 0.00 0.00 85 1014.1
20260903102419 78 134 2.0 4.0 0.00 0.00 0.00 85 1014.1
20260903101929 78 129 2.0 4.0 0.00 0.00 0.00 86 1014.2
20260903101417 78 126 2.0 4.0 0.00 0.00 0.00 86 1014.1
20260903100925 78 141 2.0 4.0 0.00 0.00 0.00 86 1014.2
20260903100415 78 137 2.0 3.0 0.00 0.00 0.00 87 1014.1
20260903095927 78 138 0.0 3.0 0.00 0.00 0.00 87 1014.2
20260903095418 78 145 0.0 2.0 0.00 0.00 0.00 87 1014.1
20260903094926 78 146 1.0 2.0 0.00 0.00 0.00 88 1014.1
20260903094417 78 142 1.0 4.0 0.00 0.00 0.00 88 1014.0
20260903093932 78 142 1.0 4.0 0.00 0.00 0.00 88 1014.0
20260903093438 78 132 2.0 3.0 0.00 0.00 0.00 88 1013.9
20260903092926 78 132 1.0 2.0 0.00 0.00 0.00 88 1013.9
20260903092436 78 132 0.0 2.0 0.00 0.00 0.00 89 1013.8
20260903091944 78 134 0.0 2.0 0.00 0.00 0.00 89 1013.8
20260903091430 78 129 1.0 2.0 0.00 0.00 0.00 89 1013.8
20260903090940 78 129 1.0 3.0 0.00 0.00 0.00 89 1013.8
20260903090426 78 129 2.0 3.0 0.00 0.00 0.00 89 1013.7
20260903085938 78 134 1.0 3.0 0.00 0.00 0.00 89 1013.8
20260903085447 78 131 1.0 3.0 0.00 0.00 0.00 89 1013.8
20260903084937 77 132 0.0 0.0 0.00 0.00 0.00 89 1013.7
20260903084424 77 126 0.0 0.0 0.00 0.00 0.00 89 1013.7
20260903083927 78 128 0.0 0.0 0.00 0.00 0.00 89 1013.8
20260903083416 78 134 0.0 0.0 0.00 0.00 0.00 89 1013.8
20260903082929 78 133 0.0 0.0 0.00 0.00 0.00 89 1013.9
20260903082418 78 136 0.0 0.0 0.00 0.00 0.00 89 1013.7
20260903081928 78 134 0.0 0.0 0.00 0.00 0.00 89 1013.8
20260903081418 78 134 0.0 0.0 0.00 0.00 0.00 89 1013.8
20260903080926 78 133 0.0 0.0 0.00 0.00 0.00 89 1013.8
20260903080431 78 134 0.0 1.0 0.00 0.00 0.00 89 1013.8
20260903075918 78 132 0.0 3.0 0.00 0.00 0.00 89 1013.8
20260903075426 78 132 2.0 3.0 0.00 0.00 0.00 89 1013.8
20260903074933 78 134 1.0 3.0 0.00 0.00 0.00 88 1013.7
20260903074445 78 136 1.0 3.0 0.00 0.00 0.00 88 1013.7
20260903073928 78 132 0.0 0.0 0.00 0.00 0.00 89 1013.8
20260903073435 78 138 0.0 0.0 0.00 0.00 0.00 88 1013.7
20260903072925 78 135 0.0 0.0 0.00 0.00 0.00 88 1013.7
20260903072414 78 136 0.0 1.0 0.00 0.00 0.00 89 1013.7
20260903071921 78 137 0.0 1.0 0.00 0.00 0.00 89 1013.7
20260903071434 78 138 0.0 0.0 0.00 0.00 0.00 88 1013.7
20260903070944 78 360 0.0 0.0 0.00 0.00 0.00 88 1013.8
20260903070429 79 360 0.0 0.0 0.00 0.00 0.00 88 1013.8
20260903065918 79 178 0.0 0.0 0.00 0.00 0.00 87 1013.8
20260903065426 79 185 0.0 0.0 0.00 0.00 0.00 87 1013.8
20260903064932 79 186 0.0 0.0 0.00 0.00 0.00 87 1013.7
20260903064424 79 186 0.0 0.0 0.00 0.00 0.00 87 1013.8
20260903063914 79 186 0.0 0.0 0.00 0.00 0.00 87 1013.8
20260903063416 79 186 0.0 0.0 0.00 0.00 0.00 87 1013.8
20260903062926 79 186 0.0 0.0 0.00 0.00 0.00 87 1013.9
20260903062437 79 186 0.0 0.0 0.00 0.00 0.00 87 1013.9
20260903061923 80 186 0.0 0.0 0.00 0.00 0.00 87 1013.9
20260903061431 80 186 0.0 0.0 0.00 0.00 0.00 86 1013.9
20260903060919 80 186 0.0 0.0 0.00 0.00 0.00 86 1013.9
20260903060429 80 186 0.0 0.0 0.00 0.00 0.00 86 1013.9
20260903055921 80 186 0.0 0.0 0.00 0.00 0.00 86 1014.0
20260903055428 80 185 0.0 0.0 0.00 0.00 0.00 86 1013.9
20260903054917 80 185 0.0 3.0 0.00 0.00 0.00 86 1014.0
20260903054426 80 185 1.0 3.0 0.00 0.00 0.00 85 1013.9
20260903053958 80 185 1.0 3.0 0.00 0.00 0.00 85 1013.9
20260903053424 81 185 1.0 3.0 0.00 0.00 0.00 85 1013.8
20260903052953 81 185 2.0 3.0 0.00 0.00 0.00 85 1013.8
20260903052422 81 187 1.0 3.0 0.00 0.00 0.00 85 1013.8
20260903051926 81 187 1.0 3.0 0.00 0.00 0.00 85 1013.8
20260903051420 81 187 1.0 3.0 0.00 0.00 0.00 85 1013.8
20260903050924 81 186 2.0 3.0 0.00 0.00 0.00 85 1013.8
20260903050431 81 186 1.0 3.0 0.00 0.00 0.00 85 1013.8
20260903045933 81 184 1.0 2.0 0.00 0.00 0.00 84 1013.7
20260903045422 81 184 0.0 0.0 0.00 0.00 0.00 84 1013.8
20260903044929 81 184 0.0 0.0 0.00 0.00 0.00 84 1013.8
20260903044435 81 184 0.0 0.0 0.00 0.00 0.00 83 1013.9
20260903043923 82 184 0.0 0.0 0.00 0.00 0.00 83 1013.8
20260903043433 82 184 0.0 0.0 0.00 0.00 0.00 83 1013.8
20260903042923 82 184 0.0 0.0 0.00 0.00 0.00 83 1013.8
20260903042430 82 184 0.0 0.0 0.00 0.00 0.00 82 1013.8
20260903041940 82 184 0.0 0.0 0.00 0.00 0.00 82 1013.8
20260903041426 82 184 0.0 0.0 0.00 0.00 0.00 82 1013.7
20260903040933 82 184 0.0 2.0 0.00 0.00 0.00 82 1013.7
20260903040418 82 184 0.0 2.0 0.00 0.00 0.00 82 1013.7
20260903035945 82 184 0.0 1.0 0.00 0.00 0.00 81 1013.7
20260903035432 83 184 0.0 1.0 0.00 0.00 0.00 81 1013.7
20260903034921 83 184 0.0 2.0 0.00 0.00 0.00 81 1013.5
20260903034415 83 184 1.0 3.0 0.00 0.00 0.00 80 1013.6
20260903033922 83 184 2.0 3.0 0.00 0.00 0.00 80 1013.5
20260903033431 83 194 1.0 3.0 0.00 0.00 0.00 80 1013.5
20260903032951 83 199 0.0 0.0 0.00 0.00 0.00 79 1013.5
20260903032419 83 199 0.0 0.0 0.00 0.00 0.00 79 1013.5
20260903031929 84 198 0.0 0.0 0.00 0.00 0.00 79 1013.5
20260903031420 84 198 0.0 0.0 0.00 0.00 0.00 79 1013.5
20260903030928 84 198 0.0 0.0 0.00 0.00 0.00 79 1013.5
20260903030417 84 198 0.0 2.0 0.00 0.00 0.00 78 1013.4
20260903025924 84 198 0.0 4.0 0.00 0.00 0.00 78 1013.5
20260903025433 84 197 1.0 4.0 0.00 0.00 0.00 78 1013.5
20260903024921 84 180 0.0 2.0 0.00 0.00 0.00 78 1013.5
20260903024428 84 178 0.0 3.0 0.00 0.00 0.00 78 1013.4
20260903023936 85 189 2.0 3.0 0.00 0.00 0.00 78 1013.5
20260903023441 85 203 2.0 3.0 0.00 0.00 0.00 77 1013.5
20260903022949 85 204 1.0 3.0 0.00 0.00 0.00 77 1013.5
20260903022415 85 204 1.0 2.0 0.00 0.00 0.00 77 1013.5
20260903021923 85 203 0.0 4.0 0.00 0.00 0.00 77 1013.4
20260903021436 85 198 1.0 4.0 0.00 0.00 0.00 76 1013.3
20260903020920 85 191 3.0 4.0 0.00 0.00 0.00 76 1013.3
20260903020431 85 178 2.0 7.0 0.00 0.00 0.00 76 1013.2
20260903015922 85 195 3.0 7.0 0.00 0.00 0.00 76 1013.1
20260903015429 85 188 3.0 6.0 0.00 0.00 0.00 76 1013.1
20260903014918 85 189 3.0 5.0 0.00 0.00 0.00 76 1013.0
20260903014458 86 186 3.0 6.0 0.00 0.00 0.00 76 1013.0
20260903013944 86 185 3.0 6.0 0.00 0.00 0.00 76 1013.0
20260903013428 86 184 3.0 5.0 0.00 0.00 0.00 76 1012.9
20260903012919 86 194 3.0 5.0 0.00 0.00 0.00 76 1013.0
20260903012427 86 189 2.0 3.0 0.00 0.00 0.00 76 1012.9
20260903011916 86 190 1.0 3.0 0.00 0.00 0.00 75 1012.7
20260903011426 86 190 2.0 4.0 0.00 0.00 0.00 75 1012.8
20260903010932 86 188 2.0 4.0 0.00 0.00 0.00 74 1012.8
20260903010419 87 188 2.0 4.0 0.00 0.00 0.00 74 1012.9
20260903005932 87 188 2.0 4.0 0.00 0.00 0.00 73 1012.8
20260903005419 87 194 1.0 3.0 0.00 0.00 0.00 73 1012.7
20260903004925 87 194 1.0 4.0 0.00 0.00 0.00 73 1012.7
20260903004418 87 191 2.0 4.0 0.00 0.00 0.00 73 1012.6
20260903003928 88 190 2.0 4.0 0.00 0.00 0.00 72 1012.6
20260903003417 88 186 3.0 4.0 0.00 0.00 0.00 72 1012.5
20260903002922 88 198 2.0 4.0 0.00 0.00 0.00 71 1012.6
20260903002428 88 176 2.0 5.0 0.00 0.00 0.00 71 1012.7
20260903001917 88 174 2.0 5.0 0.00 0.00 0.00 70 1012.7
20260903001430 89 186 1.0 4.0 0.00 0.00 0.00 70 1012.8